{"data":{"norad_id":68851,"intl_designator":"2026-094N","name":"STARLINK-37382","alt_names":[],"object_type":"PAYLOAD","status":"ACTIVE","operator":null,"country":"US","launch_date":"2026-04-26","launch_site_code":"AFWTR","launch_vehicle":null,"mission":null,"orbit_class":"UNKNOWN","rcs_meters":null,"size_class":null,"mass_kg":null,"dimensions":null,"purposes":["comms"],"wikipedia_slug":null,"has_3d_model":false,"image_url":null,"decayed_at":null,"tle_current":{"epoch":"2026-09-19T19:45:23.544288Z","epoch_age_seconds":74089,"freshness":"FRESH","line1":"1 68851U 26094N   26262.82318917  .00011276  00000+0  35084-3 0  9995","line2":"2 68851  97.2847 275.9502 0001485  92.7390 267.4023 15.33465486 22558","mean_motion":15.33465486,"eccentricity":0.0001485,"inclination_deg":97.2847,"raan_deg":275.9502,"arg_perigee_deg":92.739,"mean_anomaly_deg":267.4023,"bstar":0.00035084,"rev_number":2255,"period_min":93.904950137234,"perigee_km":464.46594577917,"apogee_km":466.49850068847,"semimajor_km":6843.6192232338,"source":"CELESTRAK","updated_at":"2026-09-20T09:00:44.017208Z"}}}